Tracking 25612 objects as of 19-May-2022
HD Live streaming from Space Station
objects crossing your sky now

SL-14 DEB

Track SL-14 DEB now!
10-day predictions


NORAD ID: 45336
Int'l Code: 1991-056CA
Perigee: 1,129.7 km
Apogee: 1,199.3 km
Inclination: 82.6 °
Period: 108.5 minutes
Semi major axis: 7535 km
RCS: Unknown
Launch date: August 15, 1991
Source: Commonwealth of Independent States (former USSR) (CIS)
Launch site: PLESETSK MISSILE AND SPACE COMPLEX (PKMTR)

Note: This is SATELLITE DEBRIS
aabbcc
Your satellite tracking list
Your tracking list is empty




NASA's NSSDC Master Catalog

Two Line Element Set (TLE):
1 45336U 91056CA  22138.32166963  .00001113  00000-0  24428-2 0  9992
2 45336  82.5778 104.4085 0046139 158.7106 201.5956 13.27197795107718
Source of the keplerian elements: AFSPC